Change the Weather History Date:

Thursday, April 10, 2014

  Actual Average Record
Temperature  
Mean Temperature 52 °F -  
Max Temperature 64 °F 57 °F 84 °F (2011)
Min Temperature 37 °F 37 °F 20 °F (1960)
Degree Days  
Heating Degree Days 13    
Growing Degree Days 2 (Base 50)    
Moisture  
Dew Point 35 °F    
Average Humidity 48    
Maximum Humidity 75    
Minimum Humidity 25    
Precipitation  
Precipitation 0.00 in - - ()
Sea Level Pressure  
Sea Level Pressure 29.82 in    
Wind  
Wind Speed 11 mph (WSW)    
Max Wind Speed 18 mph    
Max Gust Speed 25 mph    
Visibility 10 miles    
Events      
Averages and records for this station are not official NWS values.
T = Trace of Precipitation, MM = Missing Value Source: NWS Daily Summary

Daily Weather History Graph

Daily Weather History Graph

Search for Another Location

Airport or City:

Trip Planner

Search our weather history database for the weather conditions in past years. The results will help you decide how hot, cold, wet, or windy it might be!

Date:

Astronomy

Apr. 10, 2014 Rise Set
Actual Time 6:30 AM CDT 7:36 PM CDT
Civil Twilight 6:02 AM CDT 8:04 PM CDT
Nautical Twilight 5:28 AM CDT 8:38 PM CDT
Astronomical Twilight 4:53 AM CDT 9:13 PM CDT
Moon 3:18 PM CDT (4/10) 3:55 AM CDT (4/10)
Length of Visible Light 14h 02m
Length of Day
13h 05m
Waxing Gibbous, 80% of the Moon is Illuminated
Apr 10
Waxing Gibbous
Apr 15
Full
Apr 22
Last Quarter
Apr 29
New
May 6
First Quarter

Hourly Weather History & Observations

Time (CDT) Temp. Windchill Dew Point Humidity Pressure Visibility Wind Dir Wind Speed Gust Speed Precip Events Conditions
12:15 AM 52.2 °F - 34.5 °F 51% 29.82 in 10.0 mi SSE 11.5 mph - N/A   Clear
12:35 AM 51.3 °F - 34.7 °F 53% 29.81 in 10.0 mi SSE 10.4 mph - N/A   Clear
12:55 AM 51.1 °F - 34.7 °F 54% 29.80 in 10.0 mi South 11.5 mph - N/A   Clear
1:15 AM 51.1 °F - 34.7 °F 54% 29.80 in 10.0 mi South 10.4 mph - N/A   Clear
1:35 AM 51.8 °F - 34.5 °F 52% 29.79 in 10.0 mi SSE 11.5 mph - N/A   Clear
1:55 AM 51.4 °F - 34.7 °F 53% 29.78 in 10.0 mi South 10.4 mph 16.1 mph N/A   Clear
2:15 AM 51.8 °F - 34.7 °F 52% 29.77 in 10.0 mi South 10.4 mph 17.3 mph N/A   Clear
2:35 AM 52.0 °F - 34.7 °F 52% 29.76 in 10.0 mi South 11.5 mph 17.3 mph N/A   Clear
2:55 AM 51.8 °F - 34.7 °F 52% 29.75 in 10.0 mi South 12.7 mph - N/A   Clear
3:15 AM 51.8 °F - 34.7 °F 52% 29.74 in 10.0 mi South 13.8 mph 18.4 mph N/A   Clear
3:35 AM 52.0 °F - 34.7 °F 52% 29.74 in 10.0 mi South 13.8 mph - N/A   Clear
3:55 AM 52.2 °F - 34.7 °F 51% 29.73 in 10.0 mi South 16.1 mph 20.7 mph N/A   Clear
4:15 AM 52.7 °F - 35.1 °F 51% 29.72 in 10.0 mi South 16.1 mph - N/A   Clear
4:35 AM 52.7 °F - 35.2 °F 52% 29.71 in 10.0 mi South 16.1 mph 21.9 mph N/A   Clear
4:55 AM 53.1 °F - 35.6 °F 52% 29.71 in 10.0 mi South 15.0 mph 20.7 mph N/A   Clear
5:15 AM 52.9 °F - 36.0 °F 53% 29.70 in 10.0 mi South 11.5 mph - N/A   Clear
5:35 AM 53.1 °F - 36.1 °F 53% 29.70 in 10.0 mi South 12.7 mph 18.4 mph N/A   Clear
5:55 AM 53.2 °F - 36.5 °F 53% 29.69 in 10.0 mi South 12.7 mph 19.6 mph N/A   Clear
6:15 AM 53.1 °F - 37.0 °F 55% 29.69 in 10.0 mi South 11.5 mph 17.3 mph N/A   Clear
6:35 AM 52.5 °F - 37.4 °F 56% 29.72 in 10.0 mi South 8.1 mph - N/A   Clear
6:55 AM 52.2 °F - 37.9 °F 58% 29.72 in 10.0 mi South 9.2 mph - N/A   Clear
7:15 AM 52.5 °F - 38.5 °F 59% 29.72 in 10.0 mi South 9.2 mph - N/A   Clear
7:35 AM 53.1 °F - 39.4 °F 60% 29.72 in 10.0 mi South 11.5 mph - N/A   Clear
7:55 AM 55.4 °F - 40.6 °F 58% 29.73 in 10.0 mi SSW 10.4 mph - N/A   Clear
8:15 AM 58.1 °F - 41.5 °F 54% 29.72 in 10.0 mi SSW 18.4 mph 21.9 mph N/A   Clear
8:35 AM 58.5 °F - 41.4 °F 53% 29.71 in 10.0 mi SSW 18.4 mph 25.3 mph N/A   Clear
8:55 AM 58.5 °F - 41.7 °F 54% 29.72 in 10.0 mi SSW 18.4 mph - N/A   Clear
9:15 AM 58.3 °F - 42.1 °F 55% 29.72 in 10.0 mi SSW 13.8 mph 20.7 mph N/A   Clear
9:35 AM 58.3 °F - 42.8 °F 56% 29.73 in 10.0 mi SSW 12.7 mph - N/A   Clear
9:55 AM 59.5 °F - 43.3 °F 55% 29.74 in 10.0 mi SW 13.8 mph 18.4 mph N/A   Clear
10:15 AM 60.4 °F - 43.7 °F 54% 29.75 in 10.0 mi SW 10.4 mph 17.3 mph N/A   Clear
10:35 AM 61.5 °F - 44.1 °F 53% 29.77 in 10.0 mi West 18.4 mph 21.9 mph N/A   Clear
10:55 AM 60.3 °F - 43.5 °F 54% 29.75 in 10.0 mi West 11.5 mph - N/A   Clear
11:15 AM 61.5 °F - 43.2 °F 51% 29.76 in 10.0 mi WNW 10.4 mph - N/A   Clear
11:35 AM 62.1 °F - 43.7 °F 51% 29.76 in 10.0 mi West 6.9 mph - N/A   Clear
11:55 AM 61.7 °F - 42.8 °F 50% 29.76 in 10.0 mi SW 3.5 mph - N/A   Clear
12:15 PM 61.9 °F - 43.0 °F 50% 29.79 in 10.0 mi West 6.9 mph - N/A   Clear
12:35 PM 62.4 °F - 42.8 °F 49% 29.80 in 10.0 mi WNW 10.4 mph - N/A   Clear
12:55 PM 62.4 °F - 42.6 °F 48% 29.79 in 10.0 mi NNW 8.1 mph - N/A   Clear
1:15 PM 63.0 °F - 42.6 °F 47% 29.81 in 10.0 mi NW 12.7 mph 17.3 mph N/A   Clear
1:35 PM 63.0 °F - 40.3 °F 43% 29.79 in 10.0 mi North 11.5 mph - N/A   Clear
2:15 PM 62.6 °F - 37.9 °F 40% 29.81 in 10.0 mi NNW 15.0 mph - N/A   Scattered Clouds
2:35 PM 64.2 °F - 35.6 °F 35% 29.85 in 10.0 mi WNW 17.3 mph 24.2 mph N/A   Scattered Clouds
3:15 PM 62.6 °F - 31.6 °F 31% 29.85 in 10.0 mi NW 10.4 mph - N/A   Clear
3:35 PM 62.6 °F - 30.0 °F 29% 29.84 in 10.0 mi NW 11.5 mph - N/A   Scattered Clouds
3:55 PM 62.8 °F - 31.6 °F 31% 29.86 in 10.0 mi NW 10.4 mph - N/A   Scattered Clouds
4:15 PM 62.6 °F - 31.6 °F 31% 29.87 in 10.0 mi NW 10.4 mph - N/A   Clear
4:35 PM 62.8 °F - 30.0 °F 29% 29.86 in 10.0 mi NW 9.2 mph - N/A   Scattered Clouds
4:55 PM 62.6 °F - 28.6 °F 28% 29.87 in 10.0 mi NW 11.5 mph 17.3 mph N/A   Clear
5:15 PM 62.1 °F - 27.3 °F 27% 29.88 in 10.0 mi WNW 8.1 mph - N/A   Clear
5:35 PM 61.7 °F - 26.1 °F 26% 29.88 in 10.0 mi NW 9.2 mph - N/A   Clear
5:55 PM 61.9 °F - 26.6 °F 26% 29.89 in 10.0 mi NW 9.2 mph - N/A   Clear
6:15 PM 62.1 °F - 25.5 °F 25% 29.90 in 10.0 mi WNW 6.9 mph 16.1 mph N/A   Clear
6:35 PM 61.9 °F - 27.5 °F 27% 29.90 in 10.0 mi WNW 8.1 mph - N/A   Clear
6:55 PM 60.6 °F - 29.1 °F 30% 29.91 in 10.0 mi NNW 10.4 mph - N/A   Clear
7:15 PM 58.1 °F - 28.9 °F 33% 29.92 in 10.0 mi NW 8.1 mph - N/A   Clear
7:35 PM 55.6 °F - 29.1 °F 36% 29.91 in 10.0 mi NNW 9.2 mph - N/A   Clear
7:55 PM 52.9 °F - 28.9 °F 40% 29.92 in 10.0 mi NNW 5.8 mph - N/A   Clear
8:15 PM 49.1 °F - 29.8 °F 47% 29.92 in 10.0 mi NNW 4.6 mph - N/A   Clear
8:35 PM 47.3 °F - 29.8 °F 51% 29.93 in 10.0 mi NNW 5.8 mph - N/A   Clear
8:55 PM 46.0 °F 43.9 °F 29.8 °F 53% 29.94 in 10.0 mi NNW 4.6 mph - N/A   Clear
9:15 PM 45.5 °F 41.3 °F 29.7 °F 54% 29.94 in 10.0 mi NNW 8.1 mph - N/A   Clear
9:35 PM 46.8 °F - 28.6 °F 49% 29.96 in 10.0 mi NW 5.8 mph - N/A   Clear
9:55 PM 46.6 °F - 27.7 °F 48% 29.96 in 10.0 mi NNW 3.5 mph - N/A   Clear
10:15 PM 43.7 °F 42.1 °F 27.7 °F 53% 29.96 in 10.0 mi NW 3.5 mph - N/A   Clear
10:35 PM 42.6 °F - 28.2 °F 57% 29.98 in 10.0 mi Calm Calm - N/A   Clear
10:55 PM 42.8 °F 41.1 °F 28.4 °F 57% 29.98 in 10.0 mi West 3.5 mph - N/A   Clear
11:15 PM 42.3 °F 40.5 °F 28.4 °F 58% 29.98 in 10.0 mi NW 3.5 mph - N/A   Clear
11:35 PM 40.5 °F - 29.3 °F 64% 29.99 in 10.0 mi Calm Calm - N/A   Clear
11:55 PM 37.6 °F - 30.2 °F 75% 29.99 in 10.0 mi Calm Calm - N/A   Clear